Retour au catalogue

STARLINK-33794

ActifCommunicationsVLEO
NORAD 63820·PAYLOAD·🇺🇸 United States

Lancé May 4, 2025 depuis Cape Canaveral Space Force Station

Loading…

Prochains Passages (prochaines 24 heures)

TLE

FraisSource: CelesTrak SupGP

Époque: Sep 14, 2026, 20:50 UTC

1 63820C 25092S   26257.86854167  .00005888  00000+0  21327-3 0  2577
2 63820  43.0027 184.3510 0001476 273.7719 132.8605 15.27574275    14

Suivez STARLINK-33794 en temps réel avec AllMySat

Download on the App Store